Overview Statistics Trail Chart Weather Telemetry Raw packets
 

This is the latest recevied weather packets stored in our database for station/object SV9TNF-57. If no packets are shown the sender has not sent any weather packets the latest 10 day(s).

<< 61 62 63 64 65 66 67 >>
Time Temp. Humidity Pressure Rain* Wind** Luminosity Snow
1788238387 26.11° C 51% 994.1 hPa 0 mm 2.68 m/s, 338° - -
1788238086 25.56° C 52% 994.2 hPa 0 mm 2.68 m/s, 300° - -
1788237787 25.56° C 53% 994.3 hPa 0 mm 6.71 m/s, 328° - -
1788237486 25.56° C 53% 994 hPa 0 mm 4.92 m/s, 316° - -
1788237186 25.56° C 53% 994.2 hPa 0 mm 7.6 m/s, 311° - -
1788236886 25.56° C 53% 994 hPa 0 mm 0.89 m/s, 297° - -
1788236587 25.56° C 54% 994.2 hPa 0 mm 4.02 m/s, 321° - -
1788236286 25° C 53% 994.1 hPa 0 mm 4.02 m/s, 264° - -
1788235986 25° C 53% 994.1 hPa 0 mm 2.24 m/s, 10° - -
1788235686 24.44° C 53% 994.4 hPa 0 mm 2.24 m/s, 278° - -
1788235386 24.44° C 54% 994.2 hPa 0 mm 0.89 m/s, 344° - -
1788235086 24.44° C 54% 994.2 hPa 0 mm 0.45 m/s, 297° - -
1788234786 24.44° C 54% 994.1 hPa 0 mm 0.45 m/s, 285° - -
1788234485 24.44° C 52% 994.2 hPa 0 mm 0.45 m/s, 311° - -
1788234185 24.44° C 52% 994 hPa 0 mm 0 m/s - -
1788233885 24.44° C 52% 994.2 hPa 0 mm 0 m/s - -
1788233585 24.44° C 52% 994 hPa 0 mm 1.79 m/s, 236° - -
1788233285 25° C 51% 994 hPa 0 mm 0.89 m/s, 246° - -
1788232985 25° C 51% 994.2 hPa 0 mm 0.45 m/s, 293° - -
1788232685 25° C 50% 993.9 hPa 0 mm 0.89 m/s, 261° - -
1788232385 25° C 50% 994.1 hPa 0 mm 2.24 m/s, 297° - -
1788232085 25° C 50% 994 hPa 0 mm 0.89 m/s, 339° - -
1788231800 25° C 50% 993.9 hPa 0 mm 3.13 m/s, 249° - -
1788231484 25° C 50% 994 hPa 0 mm 4.92 m/s, 336° - -
1788231185 25° C 51% 993.8 hPa 0 mm 0.89 m/s, 341° - -

* Rain latest hour (hover to see other rain measurements)
** Current wind speed in m/s (hover to see current wind gust speed)